Location: Jodlow
(50.1500°N, 16.7500°E)
Time: 09:08:20
(UTC+02:00)

O/OREOS (USA 219) - Visible Passes

Search period start: 21 June 2025 00:00
Search period end: 01 July 2025 00:00
Orbit: 583 x 603 km, 72.0° (Epoch: 20 June)

Date Brightness Start Highest point End Pass type
(mag) Time Alt. Az. Time Alt. Az. Time Alt. Az.
21 Jun ? 03:17:32 10° N 03:19:48 14° NE 03:22:03 10° ENE visible
22 Jun ? 03:26:08 10° N 03:29:15 19° NE 03:32:21 10° E visible
23 Jun ? 03:34:57 10° N 03:38:37 26° NE 03:42:17 10° ESE visible
24 Jun ? 03:43:51 10° NNW 03:47:56 38° NE 03:51:58 10° ESE visible
25 Jun ? 02:15:57 10° NNE 02:17:39 12° NE 02:19:20 10° ENE visible
25 Jun ? 03:52:52 10° NNW 03:57:09 58° ENE 04:01:26 10° SE visible
26 Jun ? 02:24:22 10° N 02:27:07 16° NE 02:29:52 10° E visible
27 Jun ? 02:33:04 10° N 02:36:31 22° NE 02:39:57 10° E visible
28 Jun ? 02:41:56 10° NNW 02:45:50 32° NE 02:49:44 10° ESE visible
29 Jun ? 01:14:43 10° NNE 01:15:25 10° NE 01:16:09 10° NE visible
29 Jun ? 02:50:53 10° NNW 02:55:05 47° ENE 02:59:17 10° SE visible
30 Jun ? 01:22:35 10° N 01:24:54 14° NE 01:27:14 10° ENE visible
30 Jun ? 02:59:54 10° NNW 03:04:15 73° ENE 03:08:36 10° SSE visible
